sat.trackr.live / text

‹ back to catalog

STARLINK-3790

NORAD 52274 · 2022-041P

PAYLOAD ACTIVE UNKNOWN

§ Identity

Operator
Country
US
Launch date
2022-04-21
Launch site
AFETR
Launch vehicle
Mass (kg)
RCS (m²)

Purposes: comms

External: N2YO · Heavens-Above · Gunter

§ Orbital elements

Epoch: 2026-05-25T02:47:17.172672Z

Period
95.44 min
Inclination
53.2144°
Eccentricity
0.0001318
Mean motion
15.08836885 rev/d
Perigee alt
538.8 km
Apogee alt
540.7 km
Semi-major
6,917.9 km
B*
6.8668e-6
RAAN
126.0266°
Arg perigee
76.8337°
Mean anomaly
283.2802°
Rev number
22,590

§ Raw data

STARLINK-37901 52274U 22041P   26145.11617098 -.00000179  00000+0  68668-5 0  99962 52274  53.2144 126.0266 0001318  76.8337 283.2802 15.08836885225906

JSON: /api/v1/satellites/52274 · /tle

For live sub-satellite position, see the globe view (requires WebGL).

§ Visibility from observer

Set your observer location to see the next 7 days of passes ≥ 10°. The values pass through the URL so the page stays shareable.

No JS? Fill the form by hand. The geolocation button needs JavaScript.